Volver al catálogo

COSMOS 1691

ActivoNavegaciónPO
NORAD 16139·PAYLOAD·🇷🇺 Russia

Lanzado Oct 9, 1985 desde Plesetsk Cosmodrome

Loading…

Próximos Pases (próximas 24 horas)

TLE

ActualizadoSource: Space-Track

Época: Sep 14, 2026, 22:34 UTC

1 16139U 85094B   26257.94030292  .00000002  00000-0 -49675-4 0  9995
2 16139  82.6088 232.8677 0001256  66.7072 307.1263 12.62477205886562

Sigue COSMOS 1691 en tiempo real con AllMySat

Download on the App Store